Simultaneous Nadir Overpasses (SNOs) Predictions

Prediction of SNOs between NOAA-19 and TERRA Satellite Orbit:

Table of predicted SNOs for the next 14.0 days since TLE Epoch: 12/2/2011
Index Date Time (NOAA-19) NOAA-19 Lat,Lon TERRA Lat,Lon Distance(km) Time Diff (sec)
1 12/03/2011 12:41:50 -70.81, 165.92 -70.70, 171.05 188.38 57
2 12/03/2011 13:32:20 68.86, -23.86 68.84, -23.89 2.51 26
3 12/03/2011 14:23:16 -68.73, 143.57 -68.73, 143.60 0.97 60
4 12/03/2011 15:13:18 65.21, -45.06 65.23, -52.55 348.82 35
5 12/05/2011 17:26:21 -69.60, 96.63 -69.50, 98.24 63.73 69
6 12/05/2011 18:17:13 68.77, -94.97 68.79, -95.04 3.56 5
7 12/05/2011 19:07:58 -68.08, 73.21 -68.12, 71.77 59.99 70
8 12/07/2011 21:20:59 71.76,-145.47 71.68,-137.17 289.54 44
9 12/07/2011 22:11:02 -68.90, 26.40 -68.88, 26.34 3.56 60
10 12/07/2011 23:02:07 68.74,-166.16 68.72,-166.22 3.49 37
11 12/07/2011 23:52:29 -66.83, 3.51 -66.87, -0.72 184.98 58
12 12/10/2011 02:05:27 70.39, 145.69 70.33, 149.61 146.80 61
13 12/10/2011 02:55:55 -68.84, -44.74 -68.84, -44.79 2.02 28
14 12/10/2011 03:47:00 68.66, 122.72 68.68, 122.65 3.40 69
15 12/10/2011 04:36:55 -65.30, -66.06 -65.30, -73.38 340.22 36
16 12/12/2011 06:49:59 69.21, 76.25 69.11, 76.84 25.61 71
17 12/12/2011 07:40:48 -68.78,-115.89 -68.78,-115.95 2.54 4
18 12/12/2011 08:31:34 67.57, 52.91 67.66, 50.35 108.72 65
19 12/14/2011 10:44:33 -71.74,-166.34 -71.70,-158.02 289.92 44
20 12/14/2011
